FENGYUN 1C DEB, 31527

Orbit data source: Space-Track

FENGYUN 1C DEB, 31527 is space debris in SSO originally from a launch on Mon, 10 May 1999 UTC launched from the Taiyaun Space Center, China (TSC). Fengyun 1C debris stems from the Chinese weather satellite Fengyun-1C, which was intentionally destroyed by a Chinese anti-satellite missile in 2007. This event dramatically increased the amount of space debris, with thousands of trackable fragments posing hazards to satellites and human spaceflight. The Fengyun 1C debris cloud has become a focal point in discussions about space sustainability and the need for international regulations to prevent the creation of new debris.

Loading next visibility...
Identifier
31527, 1999-025BXS
Orbit
SSO
Country
Flag of CNCN / PRC
Related business
Manufacturer
Unknown
Mission
Spacecraft
Bus & Motor
Unknown
Mass
Unknown
Launch date (UTC)
1999-05-10 (26 years ago)
Launch vehicle
Unknown
Launch site
Taiyaun Space Center, China (TSC)
Object type
Payload
Rocket body
Debris
Shape & HBR
Unknown shape, 0.1 m
Radar Cross Section
Small (<0.1 m²)

Expand to show TLE details & history
Last TLE update: 1 day ago

TLE from 1 day ago
0 FENGYUN 1C DEB
1 31527U 99025BXS 25300.42534962  .00000396  00000-0  59111-3 0  9996
2 31527  98.8926 112.6536 0450108  53.4765 310.6939 13.23354891895770
Epoch: 2025-10-27T10:12Z
TLE epoch observation values (Epoch: 2025-10-27T10:12:30.207Z)
Latitude
0.00004°
Longitude
-76.49964°
Altitude
962.281 km
Speed
7.474 km/s
True Right ascension
07h 30m 36s
True Declination
0° 00' 00"
Sunlit
Object was in daylight at epoch
Visualization orbit readout
Latitude
Unknown
Longitude
Unknown
Altitude
Unknown
Speed
Unknown
Apparent Right ascension
Unknown
Apparent Declination
Unknown
Sunlit
N/A
Visualization observer readout
Local Sidereal Time
17:07:39
Azimuth
Unknown
Elevation
Unknown
Doppler factor
Unknown
Orbital elements
Apogee altitude
1,508.935 km
Perigee altitude
829.51 km
Semi-major axis
7,547.359 km
Eccentricity
0.04501
Inclination
98.8926°
RAAN
112.6536°
Arg. of periapsis
53.4765°
True anomaly
306.63791°
Mean anomaly
310.6939°
Eccentric anomaly
308.68068°
Mean motion
3.31017 °/min
Orbital period
108.76 mins
BSTAR
0.00059111
Loading maneuver chart data...
Computing Atmospheric mass density...

Documentation

Showing up to 5 results
|